User: anonymous   Login
Location: Noordwijk
(52.2400°N, 4.4500°E)
Time: 08:24:40
(UTC+00:00)
Language:

CUBESAT XI-V - Orbit

View from above orbital plane
View from above orbital plane
View from above satellite
View from above satellite

Ground track
Ground track

The orbit data is extracted from the following two-line orbital elements,

1 28895U 05043F   22330.78876276  .00000791  00000-0  15752-3 0  9995
2 28895  98.1284  99.9089 0016242 354.4394   5.6626 14.64680896911173
Epoch (UTC): 26 November 2022 18:55:49
Eccentricity: 0.0016242
inclination: 98.1284°
perigee height: 666 km
apogee height: 689 km
right ascension of ascending node: 99.9089°
argument of perigee: 354.4394°
revolutions per day: 14.64680896
mean anomaly at epoch: 5.6626°
orbit number at epoch: 91117

The dashed part of the orbit path shows where the satellite is in the earth's shadow,  

DLR